Location: Poznań
(52.4062°N, 16.9234°E)
Time: 13:28:35
(UTC+01:00)

ISS - Pass Details

Date: 24 January 2019
Orbit: 403 x 411 km, 51.6° (Epoch: 23 February)

Event Time Altitude Azimuth Distance (km) Brightness Sun altitude
Rises 19:16:52 0° 235° (SW) 2,332 0.8 -26.0°
Reaches altitude 10° 19:19:00 10° 228° (SW) 1,475 -0.4 -26.4°
Enters shadow 19:19:45 15° 223° (SW) 1,194 -1.0 -26.5°
